Morris, MN

9:16 PM CDT on June 23, 2017 (GMT -0500)
Morris Municipal

Weather History for KMOX - June, 2012

Change the Weather History Date:

Wednesday, June 13, 2012

  Actual Average Record
Temperature  
Mean Temperature 63 °F -  
Max Temperature 73 °F 72 °F 82 °F (2006)
Min Temperature 53 °F 52 °F 33 °F (2002)
Degree Days  
Heating Degree Days 2    
Growing Degree Days 13 (Base 50)    
Moisture  
Dew Point 49 °F    
Average Humidity 61    
Maximum Humidity 88    
Minimum Humidity 44    
Precipitation  
Precipitation 0.07 in - - ()
Sea Level Pressure  
Sea Level Pressure 29.92 in    
Wind  
Wind Speed 12 mph (SSE)    
Max Wind Speed 23 mph    
Max Gust Speed 29 mph    
Visibility 10 miles    
Events Rain    
Averages and records for this station are not official NWS values.
T = Trace of Precipitation, MM = Missing Value Source: NWS Daily Summary

Daily Weather History Graph

Daily Weather History Graph

Search for Another Location

Airport or City:

Trip Planner

Search our weather history database for the weather conditions in past years. The results will help you decide how hot, cold, wet, or windy it might be!

Date:

Astronomy

Jun. 13, 2012 Rise Set
Actual Time 5:34 AM CDT 9:14 PM CDT
Civil Twilight 4:56 AM CDT 9:52 PM CDT
Nautical Twilight 4:05 AM CDT 10:42 PM CDT
Astronomical Twilight 2:57 AM CDT 11:51 PM CDT
Moon 2:01 AM CDT (6/13) 3:50 PM CDT (6/13)
Length of Visible Light 16h 55m
Length of Day
15h 39m
Waning Crescent, 29% of the Moon is Illuminated
Jun 13
Waning Crescent
Jun 19
New
Jun 26
First Quarter
Jul 3
Full
Jul 10
Last Quarter

Hourly Weather History & Observations

Time (CDT) Temp. Dew Point Humidity Pressure Visibility Wind Dir Wind Speed Gust Speed Precip Events Conditions
12:12 AM 55.4 °F 42.8 °F 63% 30.08 in 10.0 mi SSE 6.9 mph - N/A   Clear
12:32 AM 55.4 °F 42.8 °F 63% 30.08 in 10.0 mi SSE 4.6 mph - N/A   Clear
12:52 AM 53.6 °F 42.8 °F 67% 30.07 in 10.0 mi SE 5.8 mph - N/A   Clear
1:13 AM 55.4 °F 42.8 °F 63% 30.07 in 10.0 mi SE 6.9 mph - N/A   Clear
1:32 AM 55.4 °F 42.8 °F 63% 30.07 in 10.0 mi SE 6.9 mph - N/A   Clear
1:52 AM 55.4 °F 42.8 °F 63% 30.06 in 10.0 mi SE 6.9 mph - N/A   Clear
2:12 AM 55.4 °F 42.8 °F 63% 30.05 in 10.0 mi SSE 8.1 mph - N/A   Clear
2:32 AM 55.4 °F 41.0 °F 58% 30.04 in 10.0 mi SE 6.9 mph - N/A   Clear
2:52 AM 57.2 °F 41.0 °F 55% 30.03 in 10.0 mi SSE 8.1 mph - N/A   Clear
3:12 AM 57.2 °F 41.0 °F 55% 30.02 in 10.0 mi SE 8.1 mph - N/A   Clear
3:32 AM 57.2 °F 41.0 °F 55% 30.01 in 10.0 mi SE 9.2 mph - N/A   Clear
3:52 AM 57.2 °F 39.2 °F 51% 30.00 in 10.0 mi SE 9.2 mph - N/A   Scattered Clouds
4:12 AM 55.4 °F 39.2 °F 54% 30.00 in 10.0 mi SE 8.1 mph - N/A   Clear
4:32 AM 55.4 °F 41.0 °F 58% 30.01 in 10.0 mi SSE 9.2 mph - N/A   Scattered Clouds
4:52 AM 55.4 °F 41.0 °F 58% 30.01 in 10.0 mi SSE 8.1 mph - N/A   Scattered Clouds
5:12 AM 55.4 °F 41.0 °F 58% 30.02 in 10.0 mi SSE 6.9 mph - N/A   Clear
5:32 AM 57.2 °F 41.0 °F 55% 30.02 in 10.0 mi SSE 9.2 mph - N/A   Mostly Cloudy
5:52 AM 57.2 °F 41.0 °F 55% 30.02 in 10.0 mi SSE 10.4 mph - N/A   Mostly Cloudy
6:32 AM 59.0 °F 42.8 °F 55% 30.02 in 10.0 mi South 8.1 mph - N/A   Mostly Cloudy
6:52 AM 59.0 °F 42.8 °F 55% 30.02 in 10.0 mi South 9.2 mph - N/A   Overcast
7:12 AM 59.0 °F 44.6 °F 59% 30.03 in 10.0 mi South 8.1 mph - N/A Rain Light Rain
7:32 AM 60.8 °F 46.4 °F 59% 30.02 in 10.0 mi South 9.2 mph - N/A Rain Light Rain
7:52 AM 60.8 °F 48.2 °F 63% 30.02 in 10.0 mi South 10.4 mph - N/A   Light Drizzle
8:12 AM 59.0 °F 51.8 °F 77% 30.00 in 10.0 mi SSE 12.7 mph - N/A   Overcast
8:32 AM 57.2 °F 51.8 °F 82% 30.01 in 10.0 mi SSE 11.5 mph - N/A   Mostly Cloudy
8:52 AM 59.0 °F 51.8 °F 77% 30.00 in 10.0 mi SSE 11.5 mph - N/A   Mostly Cloudy
9:12 AM 60.8 °F 53.6 °F 77% 29.99 in 10.0 mi SSE 16.1 mph - N/A Rain Light Rain
9:32 AM 59.0 °F 53.6 °F 82% 29.98 in 7.0 mi SSE 12.7 mph - 0.01 in Rain Light Rain
9:52 AM 59.0 °F 53.6 °F 82% 29.98 in 10.0 mi SSE 15.0 mph - 0.01 in   Mostly Cloudy
10:12 AM 57.2 °F 53.6 °F 88% 29.98 in 7.0 mi SSE 15.0 mph 21.9 mph 0.01 in   Overcast
10:32 AM 57.2 °F 53.6 °F 88% 29.97 in 7.0 mi SSE 18.4 mph 21.9 mph 0.03 in Rain Light Rain
10:52 AM 57.2 °F 53.6 °F 88% 29.96 in 7.0 mi SSE 16.1 mph 21.9 mph 0.05 in   Light Drizzle
11:12 AM 57.2 °F 53.6 °F 88% 29.95 in 10.0 mi SE 16.1 mph - 0.01 in Rain Light Rain
11:32 AM 55.4 °F 51.8 °F 88% 29.95 in 10.0 mi SE 18.4 mph 24.2 mph 0.01 in   Overcast
11:52 AM 55.4 °F 51.8 °F 88% 29.94 in 10.0 mi SE 18.4 mph 21.9 mph 0.01 in   Overcast
12:12 PM 57.2 °F 51.8 °F 82% 29.93 in 10.0 mi SE 16.1 mph - N/A   Overcast
12:32 PM 57.2 °F 51.8 °F 82% 29.92 in 10.0 mi ESE 18.4 mph 24.2 mph N/A   Overcast
12:52 PM 59.0 °F 51.8 °F 77% 29.92 in 10.0 mi SE 15.0 mph 21.9 mph N/A   Overcast
1:12 PM 59.0 °F 51.8 °F 77% 29.91 in 10.0 mi SE 16.1 mph - N/A   Overcast
1:32 PM 62.6 °F 51.8 °F 68% 29.90 in 10.0 mi SE 23.0 mph - N/A   Overcast
1:52 PM 64.4 °F 51.8 °F 64% 29.89 in 10.0 mi SSE 19.6 mph 25.3 mph N/A   Overcast
2:12 PM 66.2 °F 53.6 °F 64% 29.88 in 10.0 mi SSE 19.6 mph 27.6 mph N/A   Overcast
2:32 PM 66.2 °F 53.6 °F 64% 29.87 in 10.0 mi SE 18.4 mph - N/A   Overcast
2:52 PM 66.2 °F 53.6 °F 64% 29.87 in 10.0 mi SSE 18.4 mph - N/A   Overcast
3:12 PM 68.0 °F 55.4 °F 64% 29.86 in 10.0 mi SSE 15.0 mph 20.7 mph N/A   Overcast
3:32 PM 68.0 °F 51.8 °F 56% 29.86 in 10.0 mi SSE 21.9 mph 28.8 mph N/A   Overcast
3:52 PM 68.0 °F 51.8 °F 56% 29.85 in 10.0 mi SSE 20.7 mph 24.2 mph N/A   Overcast
4:12 PM 69.8 °F 53.6 °F 56% 29.85 in 10.0 mi SSE 19.6 mph - N/A   Overcast
4:32 PM 69.8 °F 53.6 °F 56% 29.84 in 10.0 mi SSE 18.4 mph 25.3 mph N/A   Mostly Cloudy
4:52 PM 71.6 °F 51.8 °F 50% 29.83 in 10.0 mi SSE 20.7 mph 27.6 mph N/A   Scattered Clouds
5:12 PM 73.4 °F 51.8 °F 47% 29.83 in 10.0 mi SSE 20.7 mph 26.5 mph N/A   Scattered Clouds
5:32 PM 73.4 °F 51.8 °F 47% 29.82 in 10.0 mi SSE 19.6 mph 26.5 mph N/A   Clear
5:52 PM 73.4 °F 51.8 °F 47% 29.82 in 10.0 mi SSE 16.1 mph 26.5 mph N/A   Clear
6:12 PM 73.4 °F 51.8 °F 47% 29.81 in 10.0 mi SE 19.6 mph - N/A   Scattered Clouds
6:32 PM 73.4 °F 51.8 °F 47% 29.80 in 10.0 mi SE 17.3 mph - N/A   Clear
6:52 PM 73.4 °F 51.8 °F 47% 29.79 in 10.0 mi SE 17.3 mph 23.0 mph N/A   Clear
7:12 PM 73.4 °F 51.8 °F 47% 29.78 in 10.0 mi SE 15.0 mph 18.4 mph N/A   Clear
7:32 PM 73.4 °F 50.0 °F 44% 29.78 in 10.0 mi SE 15.0 mph - N/A   Scattered Clouds
7:52 PM 73.4 °F 50.0 °F 44% 29.77 in 10.0 mi SE 15.0 mph 20.7 mph N/A   Clear
8:12 PM 71.6 °F 51.8 °F 50% 29.78 in 10.0 mi SE 13.8 mph - N/A   Clear
8:32 PM 71.6 °F 51.8 °F 50% 29.78 in 10.0 mi SSE 16.1 mph 21.9 mph N/A   Clear
8:52 PM 71.6 °F 51.8 °F 50% 29.77 in 10.0 mi SSE 16.1 mph 23.0 mph N/A   Clear
9:12 PM 69.8 °F 51.8 °F 53% 29.77 in 10.0 mi SE 15.0 mph - N/A   Clear
9:32 PM 69.8 °F 51.8 °F 53% 29.77 in 10.0 mi SE 16.1 mph - N/A   Clear
9:52 PM 69.8 °F 50.0 °F 49% 29.77 in 10.0 mi SE 17.3 mph - N/A   Clear
10:12 PM 69.8 °F 48.2 °F 46% 29.78 in 10.0 mi SE 17.3 mph - N/A   Clear
10:32 PM 68.0 °F 48.2 °F 49% 29.78 in 10.0 mi SE 18.4 mph 23.0 mph N/A   Clear
10:52 PM 68.0 °F 48.2 °F 49% 29.78 in 10.0 mi SE 18.4 mph - N/A   Clear
11:12 PM 68.0 °F 46.4 °F 46% 29.76 in 10.0 mi SE 20.7 mph 24.2 mph N/A   Clear
11:32 PM 66.2 °F 46.4 °F 49% 29.75 in 10.0 mi SE 19.6 mph 27.6 mph N/A   Clear
11:52 PM 66.2 °F 46.4 °F 49% 29.75 in 10.0 mi SE 19.6 mph 25.3 mph N/A   Clear